Location: St. Louis
(38.6270°N, 90.1994°W)
Time: 11:55:03
(UTC-06:00)

S-56A Canister/Altair - Pass Details

Date: 09 December 2021
Orbit: 634 x 2499 km, 38.9° (Epoch: 26 January)

Event Time Altitude Azimuth Distance (km) Brightness Sun altitude
Rises 19:34:08 0° 207° (SSW) 6,160 12.5 -33.3°
Reaches altitude 10° 19:38:55 10° 199° (SSW) 5,089 11.9 -34.2°
Enters shadow 19:49:26 32° 154° (SSE) 3,290 10.4 -36.3°
Maximum altitude 19:50:49 32° 143° (SE) 3,200 - -36.5°
Drops below altitude 10° 20:00:16 10° 86° (E) 4,046 - -38.4°
Sets 20:03:32 0° 77° (ENE) 4,778 - -39.0°
